STARLINK-36414, 67468

Orbit data source: Space-Track

STARLINK-36414, 67468 is a payload satellite owned by SpaceX/Seattle (US) in LEO that was launched on Wed, 14 Jan 2026 UTC via an FALCON 9 launch vehicle from the Air Force Eastern Test Range (AFETR). Payload-class satellites include a variety of spacecraft equipped with specific instruments for various scientific and technological missions. These include communications satellites like Starlink; space stations such as the ISS; scientific satellites like the Hubble; Earth observation satellites from companies like Planet Labs, Umbra, and HawkEye 360; GPS; miniature CubeSats for education and research; and military/defense satellites.

Loading next visibility...
Identifier
67468, 2026-008Z
Orbit
LEO
Country
Flag of USUS
Related business
Manufacturer
SpaceX/Seattle
Mission
Operational Commercial Communications
Bus & Motor
STARLINK V2MO, Unknown motor
Mass
575 kg wet, ~530 kg dry
Launch date (UTC)
2026-01-14 (5 months ago)
Launch vehicle
FALCON 9
Launch site
Air Force Eastern Test Range (AFETR)
Object type
Payload
Rocket body
Debris
Shape & HBR
Box + 2 Pan, 17.7 m
Radar Cross Section
36.964 m², Large (>1 m²)

Expand to show TLE details & history
Last TLE update: 9 hours ago

TLE from 9 hours ago
0 STARLINK-36414
1 67468U 26008Z   26171.46502942  .00025424  00000-0  93045-3 0  9997
2 67468  43.0014 344.5074 0000948 282.6045  77.4700 15.27572753 25297
Epoch: 2026-06-20T11:09Z
TLE epoch observation values (Epoch: 2026-06-20T11:09:38.541Z)
Latitude
-0.00008°
Longitude
-91.58254°
Altitude
482.705 km
Speed
7.626 km/s
True Right ascension
22h 58m 01s
True Declination
0° 00' 00"
Sunlit
Object was in daylight at epoch
Visualization orbit readout
Latitude
Unknown
Longitude
Unknown
Altitude
Unknown
Speed
Unknown
Apparent Right ascension
Unknown
Apparent Declination
Unknown
Sunlit
N/A
Visualization observer readout
Local Sidereal Time
07:21:47
Azimuth
Unknown
Elevation
Unknown
Doppler factor
Unknown
Orbital elements
Apogee altitude
485.666 km
Perigee altitude
484.365 km
Semi-major axis
6,863.153 km
Eccentricity
0.00009
Inclination
43.0014°
RAAN
344.5074°
Arg. of periapsis
282.6045°
True anomaly
77.4806°
Mean anomaly
77.47°
Eccentric anomaly
77.4753°
Mean motion
3.81731 °/min
Orbital period
94.31 mins
BSTAR
0.00093045
Loading maneuver chart data...
Computing Atmospheric mass density...
Loading historical data...
Loading historical data...
Loading historical data...
Loading historical data...
Loading historical data...
Loading historical data...
Loading historical data...

Documentation

Showing up to 5 results
|